Altus AFB, OK

8:20 PM CST on January 18, 2017 (GMT -0600)
Altus Air Force Base

Weather History for KLTS - November, 2012

Change the Weather History Date:

Monday, November 5, 2012

  Actual Average Record
Temperature  
Mean Temperature 58 °F -  
Max Temperature 71 °F 62 °F 82 °F (2008)
Min Temperature 44 °F 41 °F 31 °F (2010)
Degree Days  
Heating Degree Days 8    
Growing Degree Days 8 (Base 50)    
Moisture  
Dew Point 35 °F    
Average Humidity 47    
Maximum Humidity 78    
Minimum Humidity 24    
Precipitation  
Precipitation 0.00 in - - ()
Sea Level Pressure  
Sea Level Pressure 30.10 in    
Wind  
Wind Speed 5 mph (North)    
Max Wind Speed 20 mph    
Max Gust Speed 25 mph    
Visibility 10 miles    
Events      
Averages and records for this station are not official NWS values.
T = Trace of Precipitation, MM = Missing Value Source: NWS Daily Summary

Daily Weather History Graph

Daily Weather History Graph

Search for Another Location

Airport or City:

Trip Planner

Search our weather history database for the weather conditions in past years. The results will help you decide how hot, cold, wet, or windy it might be!

Date:

Astronomy

Nov. 05, 2012 Rise Set
Actual Time 7:01 AM CST 5:39 PM CST
Civil Twilight 6:35 AM CST 6:05 PM CST
Nautical Twilight 6:05 AM CST 6:35 PM CST
Astronomical Twilight 5:35 AM CST 7:04 PM CST
Moon 11:17 PM CST (11/5) 12:21 PM CST (11/5)
Length of Visible Light 11h 29m
Length of Day
10h 37m
Waning Gibbous, 62% of the Moon is Illuminated
Nov 5
Waning Gibbous
Nov 6
Last Quarter
Nov 13
New
Nov 20
First Quarter
Nov 28
Full

Hourly Weather History & Observations

Time (CST) Temp. Dew Point Humidity Pressure Visibility Wind Dir Wind Speed Gust Speed Precip Events Conditions
12:55 AM 46.9 °F 37.4 °F 69% 30.08 in 10.0 mi Calm Calm - N/A   Clear
1:55 AM 44.6 °F 38.1 °F 78% 30.08 in 10.0 mi Calm Calm - N/A   Clear
2:55 AM 48.9 °F 38.3 °F 67% 30.08 in 10.0 mi Calm Calm - N/A   Partly Cloudy
3:55 AM 50.5 °F 38.3 °F 63% 30.08 in 10.0 mi Calm Calm - N/A   Mostly Cloudy
4:55 AM 50.7 °F 38.3 °F 62% 30.08 in 10.0 mi Calm Calm - N/A   Mostly Cloudy
5:55 AM 50.9 °F 38.5 °F 62% 30.09 in 10.0 mi Calm Calm - N/A   Partly Cloudy
6:55 AM 51.6 °F 38.3 °F 60% 30.10 in 10.0 mi Calm Calm - N/A   Mostly Cloudy
7:55 AM 53.6 °F 37.9 °F 55% 30.12 in 10.0 mi Calm Calm - N/A   Scattered Clouds
8:55 AM 62.8 °F 36.5 °F 38% 30.14 in 10.0 mi North 18.4 mph - N/A   Clear
9:55 AM 66.7 °F 36.0 °F 32% 30.14 in 10.0 mi North 17.3 mph 23.0 mph N/A   Clear
10:55 AM 68.9 °F 37.4 °F 32% 30.14 in 10.0 mi North 17.3 mph 23.0 mph N/A   Clear
11:55 AM 70.0 °F 37.4 °F 30% 30.14 in 10.0 mi North 19.6 mph 24.2 mph N/A   Clear
12:55 PM 71.6 °F 34.2 °F 25% 30.11 in 10.0 mi North 16.1 mph 25.3 mph N/A   Clear
1:55 PM 70.7 °F 32.2 °F 24% 30.09 in 10.0 mi North 13.8 mph 21.9 mph N/A   Clear
2:55 PM 69.8 °F 31.8 °F 25% 30.08 in 10.0 mi North 15.0 mph 20.7 mph N/A   Clear
3:55 PM 69.3 °F 32.4 °F 26% 30.08 in 10.0 mi North 18.4 mph - N/A   Clear
4:55 PM 66.2 °F 32.0 °F 28% 30.08 in 10.0 mi Calm Calm - N/A   Clear
5:55 PM 61.0 °F 32.0 °F 34% 30.09 in 10.0 mi NW 6.9 mph - N/A   Clear
6:55 PM 52.7 °F 32.0 °F 45% 30.11 in 10.0 mi North 9.2 mph - N/A   Clear
7:55 PM 50.0 °F 31.8 °F 50% 30.10 in 7.0 mi NE 4.6 mph - N/A   Clear
8:55 PM 46.8 °F 33.4 °F 60% 30.10 in 10.0 mi NE 6.9 mph - N/A   Clear
9:55 PM 48.9 °F 33.1 °F 54% 30.12 in 10.0 mi NE 9.2 mph - N/A   Clear
10:55 PM 47.1 °F 33.3 °F 59% 30.12 in 10.0 mi Variable 4.6 mph - N/A   Clear
11:55 PM 45.5 °F 33.1 °F 62% 30.11 in 10.0 mi Calm Calm - N/A   Clear